Date String (YYYY-MM-DD hh:mm:ss) UTC,Instrument flags,Ambient pressure (hPa),Sample flow (lpm),Bypass flow (lpm),Sample temperature (°C),Ambient temperature (°C),ASC tube jacket temperature (°C),LED temperature (°C),Box temperature (°C),Sample RH (%),Span deviation,Mass concentration (μg/m³),Mass concentration (μg/m³),Mass concentration (μg/m³)
DateTimeUTC,F1_M11,P_M11,Q1_M11,Q2_M11,T1_M11,T2_M11,T3_M11,T4_M11,T5_M11,U1_M11,ZSPAN_M11,X0_M11,X2_M11,X1_M11
2022-10-07 07:00:00,,0837.1,5.00,0.00,30.1,28.5,00.0,38.9,31.9,22.1,0001.3,0031.72,0019.23,0016.61
2022-10-07 07:01:00,,0837.1,5.01,0.00,30.1,28.5,00.0,38.9,31.9,22.1,0001.3,0031.40,0019.22,0016.66
2022-10-07 07:02:00,,0837.1,4.99,0.00,30.1,28.4,00.0,38.9,31.9,22.2,0001.5,0031.39,0019.21,0016.71
2022-10-07 07:03:00,,0837.1,5.00,0.00,30.1,28.4,00.0,38.9,31.9,22.1,0001.5,0031.29,0019.27,0016.78
2022-10-07 07:04:00,,0837.1,5.02,0.00,30.1,28.5,00.0,38.8,31.9,22.1,0001.5,0030.76,0019.31,0016.83
2022-10-07 07:05:00,,0837.1,4.99,0.00,30.0,28.5,00.0,38.8,31.9,22.1,0001.7,0031.16,0019.35,0016.87
2022-10-07 07:06:00,,0837.1,5.00,0.00,30.0,28.5,00.0,38.8,31.8,22.1,0002.1,0031.40,0019.44,0016.94
2022-10-07 07:07:00,,0837.1,5.01,0.00,30.0,28.5,00.0,38.8,31.9,22.1,0001.8,0031.44,0019.47,0016.98
2022-10-07 07:08:00,,0837.1,5.00,0.00,30.0,28.5,00.0,38.8,31.8,22.1,0001.8,0030.51,0019.38,0016.99
2022-10-07 07:09:00,,0837.1,4.99,0.00,30.0,28.5,00.0,38.8,31.8,22.1,0001.7,0029.91,0019.29,0017.00
2022-10-07 07:10:00,,0837.1,5.00,0.00,30.0,28.5,00.0,38.8,31.8,22.0,0001.5,0029.50,0019.25,0016.98
2022-10-07 07:11:00,,0837.1,5.02,0.00,30.0,28.4,00.0,38.8,31.8,22.0,0001.2,0029.38,0019.31,0016.96
2022-10-07 07:12:00,,0837.2,4.99,0.00,30.0,28.4,00.0,38.8,31.8,22.0,0000.8,0029.35,0019.31,0016.92
2022-10-07 07:13:00,,0837.2,5.00,0.00,30.0,28.4,00.0,38.8,31.8,21.9,0000.9,0029.12,0019.28,0016.91
2022-10-07 07:14:00,,0837.2,5.01,0.00,30.0,28.4,00.0,38.8,31.8,21.9,0000.7,0029.22,0019.17,0016.85
2022-10-07 07:15:00,,0837.2,4.99,0.00,30.0,28.4,00.0,38.8,31.8,21.9,0000.7,0029.14,0019.18,0016.82
2022-10-07 07:16:00,,0837.2,5.01,0.00,30.0,28.4,00.0,38.8,31.8,21.9,0000.5,0028.21,0019.11,0016.77
2022-10-07 07:17:00,,0837.2,5.00,0.00,30.0,28.4,00.0,38.8,31.8,22.0,0000.2,0028.02,0019.04,0016.71
2022-10-07 07:18:00,,0837.2,4.99,0.00,30.0,28.4,00.0,38.8,31.8,22.0,0000.4,0027.89,0018.98,0016.66
2022-10-07 07:19:00,,0837.2,5.01,0.00,30.0,28.4,00.0,38.8,31.8,22.0,0000.5,0027.97,0018.97,0016.61
2022-10-07 07:20:00,,0837.1,4.98,0.00,30.0,28.4,00.0,38.8,31.8,22.0,0000.5,0027.54,0018.94,0016.59
2022-10-07 07:21:00,,0837.1,5.00,0.00,30.0,28.4,00.0,38.8,31.8,22.0,0000.5,0027.38,0018.87,0016.56
2022-10-07 07:22:00,,0837.1,5.01,0.00,30.0,28.4,00.0,38.8,31.8,22.0,0000.1,0027.77,0018.76,0016.50
2022-10-07 07:23:00,,0837.1,4.99,0.00,30.0,28.4,00.0,38.8,31.8,22.0,0000.1,0028.23,0018.70,0016.46
2022-10-07 07:24:00,,0837.2,5.01,0.00,30.0,28.4,00.0,38.8,31.8,21.9,-000.1,0028.41,0018.68,0016.44
2022-10-07 07:25:00,,0837.1,5.00,0.00,30.0,28.4,00.0,38.8,31.8,22.0,0000.3,0028.01,0018.70,0016.44
2022-10-07 07:26:00,,0837.2,4.99,0.00,30.0,28.4,00.0,38.8,31.8,22.0,0000.4,0028.23,0018.69,0016.44
2022-10-07 07:27:00,,0837.2,5.00,0.00,30.0,28.4,00.0,38.8,31.7,22.0,0000.1,0028.25,0018.74,0016.46
2022-10-07 07:28:00,,0837.2,5.01,0.00,30.0,28.4,00.0,38.8,31.8,22.0,0000.1,0028.55,0018.66,0016.44
2022-10-07 07:29:00,,0837.1,4.99,0.00,30.0,28.4,00.0,38.7,31.8,22.0,0000.0,0028.91,0018.69,0016.48
2022-10-07 07:30:00,,0837.2,5.00,0.00,30.0,28.4,00.0,38.7,31.7,22.0,-000.0,0029.04,0018.71,0016.52
2022-10-07 07:31:00,,0837.1,5.00,0.00,29.9,28.4,00.0,38.7,31.8,22.0,0000.0,0029.27,0018.73,0016.51
2022-10-07 07:32:00,,0837.1,4.99,0.00,30.0,28.3,00.0,38.7,31.7,22.0,0000.1,0029.26,0018.70,0016.51
2022-10-07 07:33:00,,0837.1,5.00,0.00,29.9,28.3,00.0,38.7,31.7,22.0,0000.5,0029.06,0018.70,0016.52
2022-10-07 07:34:00,,0837.1,4.99,0.00,29.9,28.4,00.0,38.7,31.7,22.0,0000.5,0029.21,0018.73,0016.55
2022-10-07 07:35:00,,0837.1,5.01,0.00,29.9,28.4,00.0,38.7,31.7,22.0,0000.8,0029.39,0018.82,0016.57
2022-10-07 07:36:00,,0837.1,5.00,0.00,29.9,28.3,00.0,38.7,31.7,22.0,0000.6,0029.79,0018.88,0016.58
2022-10-07 07:37:00,,0837.1,5.01,0.00,29.9,28.3,00.0,38.7,31.7,22.0,0000.5,0029.37,0018.86,0016.58
2022-10-07 07:38:00,,0837.1,5.00,0.00,29.9,28.3,00.0,38.7,31.7,21.9,0000.8,0030.08,0018.82,0016.60
2022-10-07 07:39:00,,0837.1,5.00,0.00,29.9,28.3,00.0,38.7,31.7,21.9,0000.5,0030.06,0018.89,0016.64
2022-10-07 07:40:00,,0837.1,5.01,0.00,29.9,28.3,00.0,38.7,31.7,22.0,0000.2,0029.62,0018.89,0016.63
2022-10-07 07:41:00,,0837.2,4.99,0.00,29.9,28.3,00.0,38.7,31.7,22.0,0000.2,0029.68,0018.95,0016.65
2022-10-07 07:42:00,,0837.2,5.00,0.00,29.9,28.3,00.0,38.7,31.7,22.0,0000.3,0029.26,0018.92,0016.68
2022-10-07 07:43:00,,0837.2,5.01,0.00,29.9,28.3,00.0,38.7,31.7,22.0,0000.5,0029.30,0018.96,0016.73
2022-10-07 07:44:00,,0837.2,4.98,0.00,29.9,28.3,00.0,38.7,31.7,22.0,0000.5,0029.45,0019.01,0016.77
2022-10-07 07:45:00,,0837.2,5.02,0.00,29.9,28.3,00.0,38.7,31.7,22.0,0000.9,0028.89,0019.04,0016.80
2022-10-07 07:46:00,,0837.2,4.99,0.00,29.9,28.3,00.0,38.7,31.7,22.0,0000.8,0029.40,0019.00,0016.80
2022-10-07 07:47:00,,0837.2,5.01,0.00,29.9,28.3,00.0,38.7,31.7,22.1,0000.5,0029.13,0019.05,0016.85
2022-10-07 07:48:00,,0837.2,5.01,0.00,29.9,28.2,00.0,38.7,31.7,22.1,0000.3,0028.87,0019.11,0016.94
2022-10-07 07:49:00,,0837.2,4.99,0.00,29.9,28.2,00.0,38.7,31.7,22.1,-000.1,0028.71,0019.25,0017.03
2022-10-07 07:50:00,,0837.2,5.00,0.00,29.9,28.1,00.0,38.7,31.7,22.1,0000.2,0028.33,0019.31,0017.10
2022-10-07 07:51:00,,0837.2,5.00,0.00,29.9,28.1,00.0,38.7,31.7,22.1,0000.9,0028.63,0019.43,0017.21
2022-10-07 07:52:00,,0837.2,4.99,0.00,29.9,28.1,00.0,38.7,31.6,22.0,0001.3,0028.82,0019.55,0017.28
2022-10-07 07:53:00,,0837.2,5.00,0.00,29.8,28.0,00.0,38.6,31.6,22.1,0000.8,0029.16,0019.69,0017.36
2022-10-07 07:54:00,,0837.2,5.01,0.00,29.8,28.0,00.0,38.6,31.6,22.0,0000.6,0029.41,0019.88,0017.46
2022-10-07 07:55:00,,0837.2,4.98,0.00,29.8,28.1,00.0,38.6,31.6,22.1,0000.7,0029.37,0020.09,0017.59
2022-10-07 07:56:00,,0837.2,5.01,0.00,29.8,28.1,00.0,38.6,31.6,22.1,0000.4,0030.26,0020.24,0017.69
2022-10-07 07:57:00,,0837.2,5.01,0.00,29.8,28.1,00.0,38.6,31.6,22.1,-000.0,0030.02,0020.44,0017.80
2022-10-07 07:58:00,,0837.2,4.98,0.00,29.8,28.1,00.0,38.6,31.6,22.1,0000.2,0030.47,0020.50,0017.88
2022-10-07 07:59:00,,0837.2,5.01,0.00,29.8,28.1,00.0,38.6,31.6,22.1,0000.0,0030.75,0020.57,0017.93
